(296750) = 2001 EQ22 = 2004 VP90 = 2009 UW13

Discovered at Socorro on 2009-10-19 by LINEAR.

Orbit

Orbit type: Main Belt

Note: WebGL enabled browser required.

epoch2024-03-31.0
epoch JD2460400.5
perihelion date2021-06-04.06457
perihelion JD2459369.56457
argument of perihelion (°)237.08603
ascending node (°)172.58522
inclination (°)14.65472
eccentricity0.0505305
perihelion distance (AU)2.9745397
Tisserand w.r.t. Jupiter3.2
ΔV w.r.t. Earth (km/sec)11.6
semimajor axis (AU)3.1328440
mean anomaly (°)183.24290
mean daily motion (°/day)0.17774430
aphelion distance (AU)3.291
period (years)5.55
P-vector [x]0.64364794
P-vector [y]0.75907141
P-vector [z]0.09761109
Q-vector [x]-0.76462498
Q-vector [y]0.63236909
Q-vector [z]0.12433007
absolute magnitude15.35
phase slope0.15
uncertainty0
referenceMPEC 2024-F74
observations used637
oppositions17
arc length (days)9315
first opposition used1998
last opposition used2024
residual rms (arc-secs)0.67
perturbers coarse indicatorM-v
perturbers precise indicator003Ek
first observation date used1998-09-19.0
last observation date used2024-03-21.0
computer nameMPCLINUX
JD of orbit computation2456937.411530
perihelion JD uncertainty (days)3.7403E-04
argument of perihelion uncertainty (°)6.3652E-05
ascending node uncertainty (°)1.3072E-05
inclination uncertainty (°)4.9755E-06
eccentricity uncertainty 4.3899E-08
perihelion distance uncertainty (AU)1.4813E-07
Minimum Orbit Intersection Distances (in AU)
for orbit epoch: 2460400.5, reference: E2024-F74
Mercury2.65456
Venus2.2634
Earth2.00554
Mars1.51515
Jupiter1.92684
Saturn6.12849
Uranus15.2303
Neptune26.8497

Observations

659 total observations over interval: 1998 09 19.349551 – 2024 03 21.634589
These data are available for download (format description).

Date (UT) J2000 RA J2000 Dec Magn Location Ref
1998 09 19.349551 01 14 41.012 +00 50 43.69 19.80 V 645 – Apache Point-Sloan Digital Sky Survey MPS 367180
1998 09 19.353023 01 14 40.899 +00 50 41.89 20.67   645 – Apache Point-Sloan Digital Sky Survey MPS 367180
2001 03 15.29423 12 14 13.62 +01 20 26.3 20.1 V 691 – Steward Observatory, Kitt Peak-Spacewatch MPS 28185
2001 03 15.31471 12 14 12.80 +01 20 37.1 19.6 V 691 – Steward Observatory, Kitt Peak-Spacewatch MPS 28185
2001 03 15.33520 12 14 11.97 +01 20 46.3 20.0 V 691 – Steward Observatory, Kitt Peak-Spacewatch MPS 28185
2001 03 20.47987 12 10 47.64 +02 03 16.1 20.5   608 – Haleakala-AMOS MPS 28185
2001 03 20.49030 12 10 47.23 +02 03 20.6 20.4   608 – Haleakala-AMOS MPS 28185
2001 03 20.50109 12 10 46.75 +02 03 25.7 20.5   608 – Haleakala-AMOS MPS 28185
2004 11 12.25660 03 57 46.90 +00 46 05.8 19.6   704 – Lincoln Laboratory ETS, New Mexico MPS 123584
2004 11 12.26852 03 57 46.36 +00 46 01.5 19.9   704 – Lincoln Laboratory ETS, New Mexico MPS 123584
2004 11 12.28045 03 57 45.83 +00 45 57.8 19.2   704 – Lincoln Laboratory ETS, New Mexico MPS 123584
2004 11 12.29238 03 57 45.23 +00 45 54.2 19.9   704 – Lincoln Laboratory ETS, New Mexico MPS 123584
2004 11 19.33289 03 52 22.10 +00 11 13.2 19.2 R 699 – Lowell Observatory-LONEOS MPS 123584
2004 11 19.34261 03 52 21.61 +00 11 11.2   699 – Lowell Observatory-LONEOS MPS 123584
2004 11 19.35232 03 52 21.08 +00 11 08.0   699 – Lowell Observatory-LONEOS MPS 123584
2004 11 19.36204 03 52 20.66 +00 11 05.7   699 – Lowell Observatory-LONEOS MPS 123584
2006 01 23.29264 09 39 19.62 +01 36 05.0 19.5 V 703 – Catalina Sky Survey MPS 367180
2006 01 23.29911 09 39 19.40 +01 36 06.9 19.3 V 703 – Catalina Sky Survey MPS 367180
2006 01 23.30559 09 39 19.04 +01 36 08.6 19.2 V 703 – Catalina Sky Survey MPS 367180
2006 01 23.31208 09 39 18.82 +01 36 11.4 19.4 V 703 – Catalina Sky Survey MPS 367180
2006 02 07.30269 09 28 56.96 +03 03 05.9 19.2 V 703 – Catalina Sky Survey MPS 367180
2006 02 07.30910 09 28 56.67 +03 03 08.0 19.7 V 703 – Catalina Sky Survey MPS 367180
2006 02 07.31553 09 28 56.31 +03 03 10.5 19.4 V 703 – Catalina Sky Survey MPS 367180
2006 02 07.32196 09 28 56.13 +03 03 11.6 19.9 V 703 – Catalina Sky Survey MPS 367180
2006 02 23.16049 09 17 39.94 +04 59 20.5 19.4 R 699 – Lowell Observatory-LONEOS MPS 367180
2006 02 23.18422 09 17 39.00 +04 59 32.6   699 – Lowell Observatory-LONEOS MPS 367180
2006 02 23.20793 09 17 38.06 +04 59 43.4   699 – Lowell Observatory-LONEOS MPS 367180
2006 02 23.23166 09 17 37.09 +04 59 55.0   699 – Lowell Observatory-LONEOS MPS 367180
2007 04 24.32691 14 20 31.41 +00 23 40.0 19.5 V G96 – Mt. Lemmon Survey MPS 367180
2007 04 24.32745 14 20 31.41 +00 23 40.1 19.4 V G96 – Mt. Lemmon Survey MPS 367180
2007 04 24.33708 14 20 30.98 +00 23 44.2 19.7 V G96 – Mt. Lemmon Survey MPS 367180
2007 04 24.33763 14 20 30.94 +00 23 44.4 19.5 V G96 – Mt. Lemmon Survey MPS 367180
2007 04 24.34730 14 20 30.51 +00 23 48.1 20.0 V G96 – Mt. Lemmon Survey MPS 367180
2007 04 24.34785 14 20 30.55 +00 23 48.6 19.7 V G96 – Mt. Lemmon Survey MPS 367180
2007 04 24.35745 14 20 30.12 +00 23 52.3 19.9 V G96 – Mt. Lemmon Survey MPS 367180
2009 09 24.37396 00 40 01.02 -01 18 58.5 19.2 V G96 – Mt. Lemmon Survey MPS 348115
2009 09 24.38233 00 40 00.69 -01 19 02.7 19.3 V G96 – Mt. Lemmon Survey MPS 348115
2009 09 24.39072 00 40 00.37 -01 19 07.5 19.2 V G96 – Mt. Lemmon Survey MPS 348115
2009 09 24.39932 00 40 00.01 -01 19 12.3 19.3 V G96 – Mt. Lemmon Survey MPS 348115
2009 10 09.26451 00 30 15.30 -03 29 40.8 19.5 V 703 – Catalina Sky Survey MPS 312060
2009 10 09.27171 00 30 15.04 -03 29 45.2 19.3 V 703 – Catalina Sky Survey MPS 312060
2009 10 09.27889 00 30 14.79 -03 29 48.5 19.5 V 703 – Catalina Sky Survey MPS 312060
2009 10 09.28611 00 30 14.54 -03 29 51.2 19.5 V 703 – Catalina Sky Survey MPS 312060
2009 10 19.22118 00 24 14.08 -04 45 35.4 19.4   704 – Lincoln Laboratory ETS, New Mexico MPS 299589
2009 10 19.23443 00 24 13.50 -04 45 41.1 19.6   704 – Lincoln Laboratory ETS, New Mexico MPS 299589
2009 10 19.24765 00 24 13.10 -04 45 46.6 19.6   704 – Lincoln Laboratory ETS, New Mexico MPS 299589
2009 10 19.27411 00 24 12.18 -04 45 57.9 19.6   704 – Lincoln Laboratory ETS, New Mexico MPS 299589
2009 10 20.15680 00 23 43.34 -04 51 59.5 19.0   704 – Lincoln Laboratory ETS, New Mexico MPS 299589
2009 10 20.17040 00 23 42.87 -04 52 06.4 19.4   704 – Lincoln Laboratory ETS, New Mexico MPS 299589
2009 10 20.18403 00 23 42.44 -04 52 11.6 19.9   704 – Lincoln Laboratory ETS, New Mexico MPS 299589
2009 10 20.19755 00 23 41.97 -04 52 15.9 20.1   704 – Lincoln Laboratory ETS, New Mexico MPS 299589
2009 10 20.21106 00 23 41.46 -04 52 22.0 19.8   704 – Lincoln Laboratory ETS, New Mexico MPS 299589
2009 10 20.23797 00 23 40.67 -04 52 32.3 20.0   704 – Lincoln Laboratory ETS, New Mexico MPS 299589
2009 10 20.25131 00 23 40.13 -04 52 36.5 19.8   704 – Lincoln Laboratory ETS, New Mexico MPS 299589
2009 10 20.26465 00 23 39.64 -04 52 41.9 19.8   704 – Lincoln Laboratory ETS, New Mexico MPS 299589
2009 10 26.17551 00 20 43.22 -05 29 36.4 19.6 V G96 – Mt. Lemmon Survey MPS 312060
2009 10 26.18207 00 20 43.00 -05 29 38.7 19.7 V G96 – Mt. Lemmon Survey MPS 312060
2009 10 26.18872 00 20 42.82 -05 29 40.9 19.6 V G96 – Mt. Lemmon Survey MPS 312060
2009 10 26.19534 00 20 42.64 -05 29 43.3 19.6 V G96 – Mt. Lemmon Survey MPS 312060
2011 12 04.60031 11 40 24.125 -01 45 10.96 21.4 w F51 – Pan-STARRS 1, Haleakala MPS 403770
2011 12 04.60493 11 40 24.358 -01 45 12.13 21.4 w F51 – Pan-STARRS 1, Haleakala MPS 403770
2011 12 04.60955 11 40 24.592 -01 45 13.06 21.4 w F51 – Pan-STARRS 1, Haleakala MPS 403770
2011 12 04.61420 11 40 24.830 -01 45 14.24 21.3 w F51 – Pan-STARRS 1, Haleakala MPS 403770
2012 02 13.41363 12 02 14.00 -01 13 37.5 20.3 V 691 – Steward Observatory, Kitt Peak-Spacewatch MPS 412918
2012 02 13.43139 12 02 13.67 -01 13 31.4 20.2 V 691 – Steward Observatory, Kitt Peak-Spacewatch MPS 412918
2012 02 13.44913 12 02 13.26 -01 13 25.9 20.5 V 691 – Steward Observatory, Kitt Peak-Spacewatch MPS 412918
2012 02 16.57841 12 01 02.836 -00 54 34.39 20.1 i F51 – Pan-STARRS 1, Haleakala MPS 414093
2012 02 16.58904 12 01 02.566 -00 54 30.49 20.1 i F51 – Pan-STARRS 1, Haleakala MPS 414093
2012 02 19.37059 11 59 51.48 -00 36 34.9 20.5 V 691 – Steward Observatory, Kitt Peak-Spacewatch MPS 414093
2012 02 19.38348 11 59 51.15 -00 36 30.7 20.6 V 691 – Steward Observatory, Kitt Peak-Spacewatch MPS 414093
2012 02 19.39637 11 59 50.82 -00 36 25.6 21.2 V 691 – Steward Observatory, Kitt Peak-Spacewatch MPS 414093
2012 02 21.30008 11 58 57.85 -00 23 33.5 20.4 V 691 – Steward Observatory, Kitt Peak-Spacewatch MPS 414093
2012 02 21.32195 11 58 57.23 -00 23 24.8 20.4 V 691 – Steward Observatory, Kitt Peak-Spacewatch MPS 414093
2012 02 21.34378 11 58 56.54 -00 23 15.7 20.4 V 691 – Steward Observatory, Kitt Peak-Spacewatch MPS 414093
2012 02 22.41481 11 58 25.06 -00 15 49.0 19.9 V 703 – Catalina Sky Survey MPS 414093
2012 02 22.42369 11 58 24.70 -00 15 45.3 19.7 V 703 – Catalina Sky Survey MPS 414093
2012 02 22.43255 11 58 24.60 -00 15 40.1 20.5 V 703 – Catalina Sky Survey MPS 414093
2012 02 22.44141 11 58 24.24 -00 15 36.0 20.0 V 703 – Catalina Sky Survey MPS 414093
2012 02 23.01603 11 58 07.14 -00 11 36.1 20.6   A14 – Les Engarouines Observatory MPS 414093
2012 02 23.02367 11 58 06.92 -00 11 32.4 20.5   A14 – Les Engarouines Observatory MPS 414093
2012 02 23.03117 11 58 06.65 -00 11 28.4 20.9   A14 – Les Engarouines Observatory MPS 414093
2012 02 23.27915 11 57 59.18 -00 09 42.6 20.2 V 691 – Steward Observatory, Kitt Peak-Spacewatch MPS 414093
2012 02 23.29710 11 57 58.58 -00 09 34.9 20.2 V 691 – Steward Observatory, Kitt Peak-Spacewatch MPS 414093
2012 02 23.31503 11 57 58.06 -00 09 27.5 20.0 V 691 – Steward Observatory, Kitt Peak-Spacewatch MPS 414093
2012 02 24.54372 11 57 19.753 -00 00 36.85 20.0 r F51 – Pan-STARRS 1, Haleakala MPS 416067
2012 02 24.55362 11 57 19.422 -00 00 32.62 20.0 r F51 – Pan-STARRS 1, Haleakala MPS 416067
2012 02 24.56401 11 57 19.080 -00 00 27.98 20.4 g F51 – Pan-STARRS 1, Haleakala MPS 416067
2012 02 24.57418 11 57 18.744 -00 00 23.77 20.5 g F51 – Pan-STARRS 1, Haleakala MPS 416067
